Location: Mesa
(33.4220°N, 111.8220°W)
Time: 17:24:28
(UTC-07:00)

N. Korean satellite - Pass Details

Date: 26 November 2019
Orbit: 455 x 507 km, 97.2° (Epoch: 14 December)

Event Time Altitude Azimuth Distance (km) Brightness Sun altitude
Rises 17:41:19 0° 171° (S) 2,566 10.4 -4.9°
Reaches altitude 10° 17:43:22 10° 173° (S) 1,694 9.5 -5.3°
Maximum altitude 17:47:01 75° 259° (W) 523 6.9 -6.0°
Drops below altitude 10° 17:50:44 10° 345° (NNW) 1,722 9.3 -6.7°
Sets 17:52:50 0° 347° (NNW) 2,613 10.2 -7.1°
